National Weather Service Hourly Weather Roundup
NOAA NWS Hourly Roundups by Site
NOAA NWS Hourly Roundups by Site
Regional Weather Roundup for Sacramento, CA

To Select Another Site Choose from List

Select Site:  

000
ASUS46 KSTO 230515
RWRCA

NORTHERN AND CENTRAL CA REGIONAL WEATHER ROUNDUP
NATIONAL WEATHER SERVICE SACRAMENTO CA
1000 PM PDT TUE SEP 22 2020

NOTE: FAIR INDICATES FEW OR NO CLOUDS BELOW 12,000 FEET WITH NO
SIGNIFICANT WEATHER AND/OR OBSTRUCTIONS TO VISIBILITY.

CAZ001-003-230600-
NORTHWEST AREA

CITY           SKY/WX    TMP DP  RH WIND       PRES   REMARKS
CRESCENT CITY  PTCLDY    58  56  93 SE5       30.10F
UKIAH          CLEAR     65  39  38 CALM      30.09R
$$

CAZ006-505>513-230600-
BAY AREA

CITY           SKY/WX    TMP DP  RH WIND       PRES   REMARKS
SANTA ROSA     PTCLDY    60  52  74 S5        30.06R
SAN RAFAEL     N/A       MM  MM  MM MISG
NAPA           PTCLDY    62  52  69 CALM      30.05R
CONCORD        PTCLDY    69  51  52 S8        30.04R
OAKLAND CITY   N/A       64  MM  MM MISG
OAKLAND        PTCLDY    65  55  70 NW5       30.08R
SAN FRAN CITY  N/A       59  MM  84 MISG
SAN FRAN ARPT  PTCLDY    62  53  72 NW10      30.07S
LIVERMORE      CLEAR     63  53  70 W7        30.06S
HAYWARD        PTCLDY    64  55  72 W7        30.08R
SAN JOSE ARPT  PTCLDY    63  53  70 NW7       30.08S
$$
CAZ034-037-514>518-230600-
CENTRAL COAST

CITY           SKY/WX    TMP DP  RH WIND       PRES   REMARKS
WATSONVILLE    CLEAR     60  56  86 CALM      30.07R
SALINAS        CLEAR     65  53  65 N5        30.05S
MONTEREY       CLEAR    N/A N/A N/A N3        30.07R
SANTA MARIA    FOG       56  54  93 CALM      30.04S VSB 1/2
HALF MOON BAY  FAIR      59  55  88 NW8       30.10F
$$
CAZ015-016-230600-
NORTHERN SACRAMENTO VALLEY

CITY           SKY/WX    TMP DP  RH WIND       PRES   REMARKS
REDDING        PTCLDY    70  54  56 NW5       30.00R
RED BLUFF      CLEAR     69  54  58 NW3       30.00R
OROVILLE       CLEAR     77  46  33 E8        30.00R
$$
CAZ016>018-230600-
SOUTHERN SACRAMENTO VALLEY

CITY           SKY/WX    TMP DP  RH WIND       PRES   REMARKS
AUBURN         CLEAR     72  41  33 E3        30.08R
BEALE AFB      PTCLDY    74  45  35 SE10      29.98R
LINCOLN        FAIR      72  46  40 CALM      29.99S
MARYSVILLE     PTCLDY    70  49  47 SE8       29.99R
SAC INTL ARPT  PTCLDY    70  48  45 SE13      29.99R
MATHER AIRPORT NOT AVBL
DOWNTOWN SAC   N/A       70  MM  MM MISG
SAC EXEC ARPT  PTCLDY    67  48  50 SE5       30.00R
VACAVILLE      PTCLDY    69  43  38 E6        30.00S
TRAVIS AFB     PTCLDY    67  49  53 SW16      30.00S
$$
CAZ019>021-230600-
SAN JOAQUIN VALLEY

CITY           SKY/WX    TMP DP  RH WIND       PRES   REMARKS
STOCKTON       CLEAR     72  45  37 W6        30.01S
MODESTO        CLEAR     74  42  31 N8        30.01R
MERCED         CLEAR     74  41  30 N10       30.00R
LEMOORE        CLEAR     76  43  30 NW13      30.00R
FRESNO         PTCLDY    78  41  26 NW12      29.99R
HANFORD        CLEAR     78  49  35 NW12      29.99R
PORTERVILLE    CLEAR     72  55  55 S5        30.00R
BAKERSFIELD    PTCLDY    77  49  37 NE8       29.99R
$$
CAZ011-012-071-230600-
NORTHERN MOUNTAINS

CITY           SKY/WX    TMP DP  RH WIND       PRES   REMARKS
YREKA          MOCLDY    62  30  29 NE3       30.09R
MOUNT SHASTA   MOCLDY    57  46  66 CALM      30.12F
ALTURAS        PTCLDY    60  27  28 S6        30.18R
$$
CAZ011-012-071-230600-
SIERRA NEVADA MTNS

CITY           SKY/WX    TMP DP  RH WIND       PRES   REMARKS
BLUE CANYON    PTCLDY    59  32  36 SE3       30.27R
TRUCKEE        PTCLDY    54  32  43 CALM      30.29R
TAHOE VLY ARPT PTCLDY    53  32  44 CALM      30.30R
MAMMOTH LAKES  CLOUDY    48  25  40 CALM      30.35S HAZE
$$



 

View Past Reports for Sacramento, CA.

Products Courtesy of NOAA-NWS
NWS Information Parsing Script by Ken True at Saratoga Weather - Script by SE Lincoln Weather.

powered by Cumulus v1.9.3 (1059)
Ambient Weather VWS v14.00
Top Website Map Copyright © 2007 - 2020 Foresthillweather.com Never base important decisions on this or any weather information obtained from the Internet